Regional Weather Roundup
Issued by NWS Sterling, VA

Home | Current Version | Previous Version | Text Only | Print | Product List | Glossary On
Versions: 1 2 3 4 5 6 7 8 9 10 11 12 13 14 15 16 17 18 19 20 21 22 23 24 25 26 27
000
ASUS41 KLWX 180911
RWRLWX

REGIONAL WEATHER ROUNDUP
NATIONAL WEATHER SERVICE BALTIMORE MD/WASHINGTON DC
500 AM EDT FRI AUG 18 2017

Note: "FAIR" indicates few or no clouds below 12,000 feet
with no significant weather and/or obstructions to visibility.
 TC=TEMPERATURE CELSIUS

 * =Non NWS site. Station does not report precipitation (e.g. rain,
    snow, etc.), thunder, or fog.

DCZ001-MDZ009-015-VAZ040>042-051-053>054-181000-
WASHINGTON METRO

CITY           SKY/WX    TMP DP  RH WIND       PRES   REMARKS
WASHINGTON NAT MOCLDY    78  76  93 S9        29.86F
DULLES         CLOUDY    76  75  97 S6        29.86F
ANDREWS AFB    MOCLDY    75  73  92 S8        29.86F
FT BELVOIR     CLEAR     76  74  92 S6        29.86F
QUANTICO       MOCLDY    79  77  94 SW10      29.86F
COLLEGE PARK*  MOCLDY    76  73  88 CALM      29.85F
LEESBURG*      CLOUDY    77  77 100 S5        29.87F
MANASSAS*      CLOUDY    75  74  96 CALM      29.86F
GAITHERSBURG*  CLOUDY    77  74  90 S5        29.88F

$$

MDZ006>007-011-014-181000-
BALTIMORE METRO

CITY           SKY/WX    TMP DP  RH WIND       PRES   REMARKS
BWI AIRPORT    CLOUDY    74  74 100 CALM      29.85F
MD SCIENCE CTR   N/A     78  74  87 MISG      29.86F
MARTIN STATE   CLOUDY    79  77  94 S5        29.87F
ANNAPOLIS      CLOUDY    78  78 100 S8        29.85F
FORT MEADE*    PTCLDY    70  70 100 CALM      29.88F

$$

MDZ012-015-019>023-181000-
MARYLAND EASTERN SHORE

CITY           SKY/WX    TMP DP  RH WIND       PRES   REMARKS
OCEAN CITY     MOCLDY    78  76  93 SW9G18    29.92F
SALISBURY      PTCLDY    75  75 100 S6        29.91S
BAY BRIDGE AP* CLOUDY    79  75  89 S12       29.86F
CAMBRIDGE*     CLOUDY    79  75  89 S7        29.89F
EASTON*        PTCLDY    77  74  91 S5        29.92F

$$

MDZ017>025-181000-
SOUTHERN MARYLAND

CITY           SKY/WX    TMP DP  RH WIND       PRES   REMARKS
PATUXENT RIVER MOCLDY    77  75  93 SW7       29.88F
ST INIGOES     MOCLDY    78  75  90 S7        29.88F
LEONARDTOWN*   PTCLDY    75  72  88 S5        29.90F

$$

MDZ003>005-181000-
NORTH CENTRAL MARYLAND

CITY           SKY/WX    TMP DP  RH WIND       PRES   REMARKS
FREDERICK*     CLOUDY    77  77 100 CALM      29.87F
HAGERSTOWN APT MOCLDY    76  73  91 S5        29.86S
WESTMINSTER*   CLOUDY    77  73  88 S6        29.88S

$$

MDZ501>502-181000-
WESTERN MARYLAND

CITY           SKY/WX    TMP DP  RH WIND       PRES   REMARKS
OAKLAND*       CLOUDY    68  68 100 SW7       29.95S
CUMBERLAND*    CLOUDY    72  72 100 CALM      29.90S VSB 1/4

$$

VAZ025>031-181000-
SHENANDOAH VALLEY

CITY           SKY/WX    TMP DP  RH WIND       PRES   REMARKS
WINCHESTER*    CLEAR     72  70  94 CALM      29.87R
FRONT ROYAL*   CLEAR     73  73 100 CALM      29.86S
LURAY*         CLEAR     73  72  94 CALM      29.89S
NEW MARKET*    PTCLDY    70  69  96 CALM      29.89S
STAUNTON*      CLEAR     69  68  99 CALM      29.93S
WAYNESBORO*    MOCLDY    72  72 100 SW3       29.93S

$$

WVZ021-048>050-054>055-181000-
EASTERN WEST VIRGINIA PANHANDLE

CITY           SKY/WX    TMP DP  RH WIND       PRES   REMARKS
MARTINSBURG    PTCLDY    73  71  93 S3        29.85S
PETERSBURG*    PTCLDY    70  69  99 CALM      29.89R

$$

VAZ036>039-050-181000-
CENTRAL FOOTHILLS

CITY           SKY/WX    TMP DP  RH WIND       PRES   REMARKS
CHARLOTTESVILL CLOUDY    76  75  97 S7        29.88S FOG
CULPEPER*      CLOUDY    76  76  99 S5        29.87F
ORANGE*        CLOUDY    73  73 100 S7        29.88S
GORDONSVILLE*  CLOUDY    75  75 100 CALM      29.88S
WARRENTON*     CLOUDY    77  73  88 S3        29.86S

$$

VAZ055>057-181000-
NORTH AND CENTRAL PIEDMONT

CITY           SKY/WX    TMP DP  RH WIND       PRES   REMARKS
FREDERICKSBRG* CLEAR     75  75 100 S3        29.86S
STAFFORD*      CLOUDY    74  74 100 CALM      29.90F

$$

NCZ024-NYZ072-PAZ021-071-VAZ022-071-181000-
OTHER REGIONAL OBSERVATIONS

CITY           SKY/WX    TMP DP  RH WIND       PRES   REMARKS
NEW YORK CITY  CLOUDY    76  69  79 VRB5      29.92F
PHILADELPHIA   CLOUDY    76  69  79 SW6       29.88F
PITTSBURGH     CLOUDY    72  72 100 CALM      29.84S
ROANOKE        PTCLDY    73  72  96 CALM      29.96S
RICHMOND       PTCLDY    75  74  96 S6        29.89S
RALEIGH        PTCLDY    76  74  93 S5        29.92F

$$

ANZ530>537-181000-
MARINE OBSERVATIONS

STATION/POSITION TIME  TEMP    WIND        PRES
                       AIR SEA DIR/SP/G
                 (UTC) (F)     (DEG/KT/KT) (MB)
THOMAS PT LIGHT  0900   78 80  180/ 16/ 18   N/A
BALT KEY BRIDGE  0842   78     200/  6/  7 1010.9F
COVE POINT       0842   77     210/  8/ 12 1012.6F
LEWISETTA        0842   78 83  220/ 10/ 13 1011.8F
SOLOMONS ISLAND  0842   78 81  200/  7/  9   N/A
PINEY POINT      0842          210/  8/ 10   N/A

$$





USA.gov is the U.S. government's official web portal to all federal, state and local government web resources and services.